User: anonymous   Login
Location: Unspecified
(0.0000°N, 0.0000°E)
Time: 04:47:57
(UTC+01:00)
Language:

Hubble Space Telescope - Orbit

View from above orbital plane
View from above orbital plane
View from above satellite
View from above satellite

Ground track
Ground track

The orbit data is extracted from the following two-line orbital elements,

1 20580U 90037B   15024.42174029  .00002161  00000-0  13048-3 0  2076
2 20580 028.4718 021.6511 0003125 131.7973 021.8345 15.06674533158103
Epoch (UTC): 24 January 2015 10:07:18
Eccentricity: 0.0003125
inclination: 28.4718°
perigee height: 544 km
apogee height: 548 km
right ascension of ascending node: 21.6511°
argument of perigee: 131.7973°
revolutions per day: 15.06674533
mean anomaly at epoch: 21.8345°
orbit number at epoch: 15810

The dashed part of the orbit path shows where the satellite is in the earth's shadow,  

DLR